Location: �clusier
(49.9361°N, 2.7869°E)
Time: 19:29:47
(UTC+00:00)

Cosmos 1452 Rocket - Pass Details

Date: 24 October 2021
Orbit: 767 x 775 km, 74.1° (Epoch: 04 December)

Event Time Altitude Azimuth Distance (km) Brightness Sun altitude
Rises 03:54:51 0° 343° (NNW) 3,266 6.7 -24.7°
Reaches altitude 10° 03:58:53 10° 13° (NNE) 2,335 6.3 -24.1°
Maximum altitude 04:01:01 12° 37° (NE) 2,174 6.4 -23.8°
Drops below altitude 10° 04:03:09 10° 61° (ENE) 2,331 7.0 -23.4°
Sets 04:07:09 0° 91° (E) 3,253 8.2 -22.8°
